Location: Pitton
(51.0667°N, 1.7000°W)
Time: 20:57:58
(UTC+00:00)

Cosmos 2297 Rocket - Pass Details

Date: 17 September 2019
Orbit: 841 x 842 km, 71.0° (Epoch: 14 October)

Event Time Altitude Azimuth Distance (km) Brightness Sun altitude
Rises 19:28:23 0° 165° (SSE) 3,386 5.0 -11.8°
Reaches altitude 10° 19:31:18 10° 151° (SSE) 2,457 4.2 -12.2°
Maximum altitude 19:35:33 22° 102° (ESE) 1,745 3.2 -12.8°
Drops below altitude 10° 19:39:49 10° 52° (NE) 2,470 4.3 -13.5°
Sets 19:42:45 0° 39° (NE) 3,410 5.2 -13.9°
